When you browse on this site, cookies collect data to enhance your experience and personalize the content and advertising you see.
Visit our Privacy Policy to learn more. By continuing to use the site, you agree to this use of cookies and data.
  • In Italy
  • List of Countries
  • For 7 days
  • Water Temperature
  • Satellite Maps
  • Weather Map
  • Weather Widgets
  • user-avatar
    Login

    Hourly Weather Hasselt

    Today, 23 July, Tuesday

    Time Temperature Precipitation Wind Pressure Humidity
    00:00 +21°C° 0 mm 1 mps 763 mmHg 81%
    01:00 +20°C° 0 mm 1 mps 763 mmHg 82%
    02:00 +20°C° 0 mm 1 mps 763 mmHg 83%
    03:00 +20°C° 0 mm 1 mps 763 mmHg 84%
    04:00 +21°C° 0 mm 1 mps 763 mmHg 80%
    05:00 +22°C° 0 mm 1 mps 763 mmHg 75%
    06:00 +23°C° 0 mm 1 mps 763 mmHg 71%
    07:00 +25°C° 0 mm 1 mps 762 mmHg 63%
    08:00 +27°C° 0 mm 2 mps 762 mmHg 56%
    09:00 +30°C° 0 mm 2 mps 762 mmHg 49%
    10:00 +31°C° 0 mm 2 mps 762 mmHg 44%
    11:00 +32°C° 0 mm 2 mps 761 mmHg 40%
    12:00 +35°C° 0 mm 2 mps 761 mmHg 35%
    13:00 +35°C° 0 mm 2 mps 761 mmHg 34%
    14:00 +36°C° 0 mm 2 mps 760 mmHg 34%
    15:00 +36°C° 0 mm 2 mps 760 mmHg 33%
    16:00 +35°C° 0 mm 2 mps 760 mmHg 39%
    17:00 +34°C° 0 mm 2 mps 759 mmHg 45%
    18:00 +32°C° 0 mm 2 mps 759 mmHg 50%
    19:00 +30°C° 0 mm 2 mps 759 mmHg 53%
    20:00 +28°C° 0 mm 2 mps 759 mmHg 55%
    21:00 +26°C° 0 mm 2 mps 759 mmHg 58%
    22:00 +26°C° 0 mm 2 mps 759 mmHg 59%
    23:00 +25°C° 0 mm 2 mps 759 mmHg 60%

    Tomorrow, 24 July, Wednesday

    Time Temperature Precipitation Wind Pressure Humidity
    00:00 +24°C° 0 mm 2 mps 758 mmHg 62%
    01:00 +24°C° 0 mm 2 mps 758 mmHg 62%
    02:00 +23°C° 0 mm 2 mps 758 mmHg 63%
    03:00 +23°C° 0 mm 2 mps 758 mmHg 63%
    04:00 +24°C° 0 mm 2 mps 757 mmHg 63%
    05:00 +25°C° 0 mm 2 mps 757 mmHg 64%
    06:00 +26°C° 0 mm 2 mps 757 mmHg 64%
    07:00 +28°C° 0 mm 2 mps 757 mmHg 58%
    08:00 +31°C° 0 mm 3 mps 757 mmHg 53%
    09:00 +34°C° 0 mm 3 mps 757 mmHg 47%
    10:00 +35°C° 0 mm 3 mps 757 mmHg 41%
    11:00 +37°C° 0 mm 3 mps 757 mmHg 36%
    12:00 +39°C° 0 mm 3 mps 756 mmHg 30%
    13:00 +39°C° 0 mm 3 mps 756 mmHg 29%
    14:00 +39°C° 0 mm 3 mps 756 mmHg 28%
    15:00 +40°C° 0 mm 2 mps 756 mmHg 27%
    16:00 +39°C° 0 mm 2 mps 756 mmHg 33%
    17:00 +37°C° 0 mm 2 mps 756 mmHg 40%
    18:00 +36°C° 0 mm 2 mps 756 mmHg 47%
    19:00 +32°C° 0 mm 2 mps 757 mmHg 56%
    20:00 +29°C° 0 mm 2 mps 757 mmHg 64%
    21:00 +27°C° 0 mm 2 mps 758 mmHg 73%
    22:00 +26°C° 0 mm 1 mps 758 mmHg 74%
    23:00 +25°C° 0 mm 1 mps 758 mmHg 76%

    Day after tomorrow, 25 July, Thursday

    Time Temperature Precipitation Wind Pressure Humidity
    00:00 +25°C° 0 mm 1 mps 758 mmHg 77%
    01:00 +24°C° 0 mm 1 mps 758 mmHg 78%
    02:00 +24°C° 0 mm 1 mps 758 mmHg 79%
    03:00 +22°C° 0 mm 0 mps 758 mmHg 79%
    04:00 +25°C° 0 mm 1 mps 758 mmHg 76%
    05:00 +26°C° 0 mm 1 mps 758 mmHg 73%
    06:00 +27°C° 0 mm 1 mps 758 mmHg 70%
    07:00 +30°C° 0 mm 1 mps 758 mmHg 61%
    08:00 +32°C° 0 mm 2 mps 758 mmHg 51%
    09:00 +36°C° 0 mm 2 mps 758 mmHg 42%
    10:00 +37°C° 0 mm 2 mps 757 mmHg 38%
    11:00 +39°C° 0 mm 2 mps 757 mmHg 34%
    12:00 +40°C° 0 mm 2 mps 757 mmHg 30%
    13:00 +41°C° 0 mm 2 mps 757 mmHg 29%
    14:00 +41°C° 0 mm 2 mps 756 mmHg 28%
    15:00 +42°C° 0 mm 3 mps 756 mmHg 27%
    16:00 +40°C° 0 mm 3 mps 756 mmHg 31%
    17:00 +38°C° 0 mm 3 mps 756 mmHg 36%
    18:00 +37°C° 0 mm 3 mps 756 mmHg 41%
    19:00 +35°C° 0 mm 3 mps 756 mmHg 44%
    20:00 +33°C° 0 mm 3 mps 756 mmHg 47%
    21:00 +30°C° 0 mm 3 mps 756 mmHg 50%
    22:00 +30°C° 0 mm 3 mps 756 mmHg 51%
    23:00 +29°C° 0 mm 2 mps 756 mmHg 52%

    26 July, Friday

    Time Temperature Precipitation Wind Pressure Humidity
    00:00 +28°C° 0 mm 2 mps 756 mmHg 52%
    01:00 +27°C° 0 mm 2 mps 756 mmHg 54%
    02:00 +27°C° 0 mm 2 mps 755 mmHg 56%
    03:00 +26°C° 0 mm 2 mps 755 mmHg 58%
    04:00 +27°C° 0 mm 2 mps 755 mmHg 58%
    05:00 +27°C° 0 mm 2 mps 754 mmHg 59%
    06:00 +28°C° 0 mm 2 mps 754 mmHg 60%
    07:00 +30°C° 0 mm 3 mps 754 mmHg 53%
    08:00 +33°C° 0 mm 3 mps 754 mmHg 47%
    09:00 +36°C° 0 mm 4 mps 754 mmHg 41%
    10:00 +37°C° 0 mm 4 mps 754 mmHg 37%
    11:00 +39°C° 0 mm 5 mps 753 mmHg 33%
    12:00 +40°C° 0 mm 5 mps 753 mmHg 29%
    13:00 +40°C° 0 mm 5 mps 752 mmHg 29%
    14:00 +40°C° 0 mm 5 mps 752 mmHg 29%
    15:00 +40°C° 0 mm 4 mps 752 mmHg 29%
    16:00 +38°C° 0 mm 4 mps 751 mmHg 33%
    17:00 +37°C° 0 mm 3 mps 751 mmHg 37%
    18:00 +36°C° 0 mm 3 mps 751 mmHg 41%
    19:00 +34°C° 0.1 mm 3 mps 751 mmHg 45%
    20:00 +31°C° 0.1 mm 3 mps 751 mmHg 48%
    21:00 +29°C° 0.1 mm 3 mps 751 mmHg 51%
    22:00 +28°C° 0.1 mm 3 mps 751 mmHg 55%
    23:00 +27°C° 0.1 mm 3 mps 751 mmHg 58%

    27 July, Saturday

    Time Temperature Precipitation Wind Pressure Humidity
    00:00 +26°C° 0.1 mm 3 mps 751 mmHg 61%
    01:00 +25°C° 0.1 mm 3 mps 751 mmHg 63%
    02:00 +24°C° 0.1 mm 3 mps 750 mmHg 64%
    03:00 +24°C° 0.1 mm 2 mps 750 mmHg 66%
    04:00 +24°C° 0 mm 3 mps 750 mmHg 65%
    05:00 +24°C° 0 mm 3 mps 750 mmHg 64%
    06:00 +25°C° 0 mm 3 mps 749 mmHg 63%
    07:00 +26°C° 0 mm 3 mps 749 mmHg 61%
    08:00 +28°C° 0 mm 3 mps 750 mmHg 59%
    09:00 +29°C° 0 mm 3 mps 750 mmHg 57%
    10:00 +30°C° 0 mm 3 mps 749 mmHg 55%
    11:00 +30°C° 0 mm 3 mps 749 mmHg 53%
    12:00 +31°C° 0 mm 3 mps 749 mmHg 52%
    13:00 +30°C° 0.5 mm 4 mps 749 mmHg 56%
    14:00 +30°C° 0.5 mm 4 mps 749 mmHg 60%
    15:00 +29°C° 0.5 mm 4 mps 748 mmHg 65%
    16:00 +28°C° 0.6 mm 4 mps 748 mmHg 69%
    17:00 +27°C° 0.6 mm 3 mps 748 mmHg 74%
    18:00 +25°C° 0.6 mm 3 mps 748 mmHg 78%
    19:00 +24°C° 3.2 mm 3 mps 749 mmHg 84%
    20:00 +22°C° 3.2 mm 3 mps 749 mmHg 90%
    21:00 +21°C° 3.2 mm 3 mps 750 mmHg 95%
    22:00 +21°C° 0.2 mm 3 mps 750 mmHg 95%
    23:00 +20°C° 0.2 mm 3 mps 750 mmHg 96%

    28 July, Sunday

    Time Temperature Precipitation Wind Pressure Humidity
    00:00 +20°C° 0.2 mm 3 mps 750 mmHg 96%
    01:00 +20°C° 0 mm 2 mps 750 mmHg 96%
    02:00 +19°C° 0 mm 2 mps 750 mmHg 96%
    03:00 +19°C° 0 mm 2 mps 750 mmHg 96%
    04:00 +19°C° 0 mm 2 mps 750 mmHg 95%
    05:00 +20°C° 0 mm 2 mps 751 mmHg 94%
    06:00 +20°C° 0 mm 2 mps 751 mmHg 93%
    07:00 +22°C° 0 mm 1 mps 751 mmHg 87%
    08:00 +24°C° 0 mm 1 mps 751 mmHg 80%
    09:00 +25°C° 0 mm 1 mps 752 mmHg 73%
    10:00 +26°C° 0.2 mm 1 mps 752 mmHg 67%
    11:00 +28°C° 0.2 mm 1 mps 752 mmHg 61%
    12:00 +29°C° 0.2 mm 1 mps 752 mmHg 55%
    13:00 +29°C° 0.4 mm 2 mps 752 mmHg 55%
    14:00 +29°C° 0.4 mm 3 mps 752 mmHg 55%
    15:00 +29°C° 0.4 mm 3 mps 752 mmHg 55%
    16:00 +28°C° 0.6 mm 3 mps 752 mmHg 63%
    17:00 +27°C° 0.6 mm 4 mps 753 mmHg 71%
    18:00 +25°C° 0.6 mm 4 mps 753 mmHg 79%
    19:00 +23°C° 0.1 mm 4 mps 753 mmHg 84%
    20:00 +22°C° 0.1 mm 3 mps 754 mmHg 88%
    21:00 +20°C° 0.1 mm 3 mps 754 mmHg 92%
    22:00 +20°C° 0 mm 3 mps 755 mmHg 93%
    23:00 +19°C° 0 mm 2 mps 755 mmHg 94%
    Show more